Location: Burzi?i
(45.0869°N, 16.0577°E)
Time: 10:39:46
(UTC+00:00)

Cosmos 2360 - Pass Details

Date: 29 October 2020
Orbit: 848 x 855 km, 70.8° (Epoch: 27 November)

Event Time Altitude Azimuth Distance (km) Brightness Sun altitude
Rises 17:52:22 0° 208° (SSW) 3,411 7.7 -22.5°
Reaches altitude 10° 17:54:49 10° 209° (SSW) 2,479 6.9 -23.0°
Maximum altitude 18:00:31 79° 296° (WNW) 874 4.3 -24.0°
Enters shadow 18:04:35 20° 22° (NNE) 1,867 5.8 -24.7°
